Time,TemperatureF,DewpointF,PressureIn,WindDirection,WindDirectionDegrees,WindSpeedMPH,WindSpeedGustMPH,Humidity,HourlyPrecipIn,Conditions,Clouds,dailyrainin,SoftwareType,DateUTC
2013-03-05 00:02:00,24.8,23.3,30.05,East,82,3.0,4.0,94,0.00,,,0.00,Wunderground v.1.15,2013-03-05 06:02:00,
2013-03-05 00:07:00,24.8,23.3,30.05,East,82,3.0,8.0,94,0.00,,,0.00,Wunderground v.1.15,2013-03-05 06:07:00,
2013-03-05 00:12:00,24.8,23.3,30.05,ESE,109,5.0,5.0,94,0.00,,,0.00,Wunderground v.1.15,2013-03-05 06:12:00,
2013-03-05 00:18:00,24.9,23.4,30.05,ESE,110,5.0,5.0,94,0.00,,,0.00,Wunderground v.1.15,2013-03-05 06:18:00,
2013-03-05 00:24:00,24.9,23.4,30.05,East,87,2.0,7.0,94,0.00,,,0.00,Wunderground v.1.15,2013-03-05 06:24:00,
2013-03-05 00:30:00,24.9,23.4,30.05,ENE,74,3.0,7.0,94,0.00,,,0.00,Wunderground v.1.15,2013-03-05 06:30:00,
2013-03-05 00:36:00,25.0,23.5,30.05,East,85,2.0,5.0,94,0.00,,,0.00,Wunderground v.1.15,2013-03-05 06:36:00,
2013-03-05 00:41:00,25.0,23.5,30.05,ESE,105,5.0,5.0,94,0.00,,,0.00,Wunderground v.1.15,2013-03-05 06:41:00,
2013-03-05 00:47:00,25.0,23.5,30.05,ENE,70,1.0,7.0,94,0.00,,,0.00,Wunderground v.1.15,2013-03-05 06:47:00,
2013-03-05 00:53:00,25.1,23.9,30.05,ESE,119,4.0,4.0,95,0.00,,,0.00,Wunderground v.1.15,2013-03-05 06:53:00,
2013-03-05 00:59:00,25.1,23.9,30.05,ESE,107,0.0,6.0,95,0.00,,,0.00,Wunderground v.1.15,2013-03-05 06:59:00,
2013-03-05 01:05:00,25.1,23.9,30.04,East,96,5.0,6.0,95,0.00,,,0.00,Wunderground v.1.15,2013-03-05 07:05:00,
2013-03-05 01:10:00,25.1,23.9,30.04,East,101,7.0,7.0,95,0.00,,,0.00,Wunderground v.1.15,2013-03-05 07:10:00,
2013-03-05 01:15:00,25.2,24.0,30.05,SE,130,2.0,7.0,95,0.00,,,0.00,Wunderground v.1.15,2013-03-05 07:15:00,
2013-03-05 01:21:00,25.2,24.0,30.05,ESE,121,4.0,4.0,95,0.00,,,0.00,Wunderground v.1.15,2013-03-05 07:21:00,
2013-03-05 01:26:00,25.2,24.0,30.05,ENE,71,0.0,4.0,95,0.00,,,0.00,Wunderground v.1.15,2013-03-05 07:26:00,
2013-03-05 01:32:00,25.2,24.0,30.05,SE,142,2.0,4.0,95,0.00,,,0.00,Wunderground v.1.15,2013-03-05 07:32:00,
2013-03-05 01:37:00,25.2,24.0,30.05,East,94,4.0,8.0,95,0.00,,,0.00,Wunderground v.1.15,2013-03-05 07:37:00,
2013-03-05 01:43:00,25.3,24.1,30.05,ESE,115,6.0,6.0,95,0.00,,,0.00,Wunderground v.1.15,2013-03-05 07:43:00,
2013-03-05 01:48:00,25.2,24.0,30.05,East,94,4.0,6.0,95,0.00,,,0.00,Wunderground v.1.15,2013-03-05 07:48:00,
2013-03-05 01:54:00,25.3,24.1,30.04,ESE,123,4.0,4.0,95,0.00,,,0.00,Wunderground v.1.15,2013-03-05 07:54:00,
2013-03-05 01:59:00,25.2,24.0,30.04,East,88,3.0,4.0,95,0.00,,,0.00,Wunderground v.1.15,2013-03-05 07:59:00,
2013-03-05 02:04:00,25.3,24.1,30.05,ESE,108,0.0,6.0,95,0.00,,,0.00,Wunderground v.1.15,2013-03-05 08:04:00,
2013-03-05 02:09:00,25.2,24.0,30.05,ESE,107,0.0,6.0,95,0.00,,,0.00,Wunderground v.1.15,2013-03-05 08:09:00,
2013-03-05 02:14:00,25.2,24.0,30.05,ENE,75,2.0,4.0,95,0.00,,,0.00,Wunderground v.1.15,2013-03-05 08:14:00,
2013-03-05 02:19:00,25.2,24.0,30.04,ENE,76,0.0,4.0,95,0.00,,,0.00,Wunderground v.1.15,2013-03-05 08:19:00,
2013-03-05 02:25:00,25.2,24.0,30.04,East,82,2.0,4.0,95,0.00,,,0.00,Wunderground v.1.15,2013-03-05 08:25:00,
2013-03-05 02:30:00,25.2,24.0,30.04,East,79,4.0,6.0,95,0.00,,,0.00,Wunderground v.1.15,2013-03-05 08:30:00,
2013-03-05 02:35:00,25.2,24.0,30.04,East,99,2.0,6.0,95,0.00,,,0.00,Wunderground v.1.15,2013-03-05 08:35:00,
2013-03-05 02:40:00,25.1,23.9,30.04,ESE,107,0.0,7.0,95,0.00,,,0.00,Wunderground v.1.15,2013-03-05 08:40:00,
2013-03-05 02:45:00,25.1,23.9,30.04,East,93,0.0,5.0,95,0.00,,,0.00,Wunderground v.1.15,2013-03-05 08:45:00,
2013-03-05 02:50:00,25.1,23.9,30.04,East,96,2.0,5.0,95,0.00,,,0.00,Wunderground v.1.15,2013-03-05 08:50:00,
2013-03-05 02:55:00,25.1,23.9,30.04,East,84,0.0,6.0,95,0.00,,,0.00,Wunderground v.1.15,2013-03-05 08:55:00,
2013-03-05 03:00:00,25.1,23.9,30.04,East,92,4.0,6.0,95,0.00,,,0.00,Wunderground v.1.15,2013-03-05 09:00:00,
2013-03-05 03:05:00,25.0,23.8,30.03,ESE,111,2.0,5.0,95,0.00,,,0.00,Wunderground v.1.15,2013-03-05 09:05:00,
2013-03-05 03:10:00,25.0,23.8,30.04,East,93,4.0,7.0,95,0.00,,,0.00,Wunderground v.1.15,2013-03-05 09:10:00,
2013-03-05 03:15:00,25.0,23.8,30.03,East,91,2.0,6.0,95,0.00,,,0.00,Wunderground v.1.15,2013-03-05 09:15:00,
2013-03-05 03:20:00,25.0,23.8,30.03,East,84,3.0,6.0,95,0.00,,,0.00,Wunderground v.1.15,2013-03-05 09:20:00,
2013-03-05 03:25:00,25.0,23.8,30.04,East,84,0.0,5.0,95,0.00,,,0.00,Wunderground v.1.15,2013-03-05 09:25:00,
2013-03-05 03:30:00,24.9,23.7,30.04,East,84,2.0,2.0,95,0.00,,,0.00,Wunderground v.1.15,2013-03-05 09:30:00,
2013-03-05 03:35:00,24.9,23.7,30.04,East,91,5.0,6.0,95,0.00,,,0.00,Wunderground v.1.15,2013-03-05 09:35:00,
2013-03-05 03:41:00,24.9,23.7,30.04,East,101,2.0,3.0,95,0.00,,,0.00,Wunderground v.1.15,2013-03-05 09:41:00,
2013-03-05 03:46:00,24.9,23.7,30.04,East,91,4.0,6.0,95,0.00,,,0.00,Wunderground v.1.15,2013-03-05 09:46:00,
2013-03-05 03:51:00,24.9,23.7,30.04,ENE,76,2.0,5.0,95,0.00,,,0.00,Wunderground v.1.15,2013-03-05 09:51:00,
2013-03-05 03:56:00,24.9,23.7,30.04,ENE,75,0.0,5.0,95,0.00,,,0.00,Wunderground v.1.15,2013-03-05 09:56:00,
2013-03-05 04:01:00,24.8,23.6,30.04,East,99,6.0,6.0,95,0.00,,,0.00,Wunderground v.1.15,2013-03-05 10:01:00,
2013-03-05 04:07:00,24.8,23.6,30.04,East,95,8.0,8.0,95,0.00,,,0.00,Wunderground v.1.15,2013-03-05 10:07:00,
2013-03-05 04:12:00,24.8,23.6,30.04,ESE,112,6.0,6.0,95,0.00,,,0.00,Wunderground v.1.15,2013-03-05 10:12:00,
2013-03-05 04:17:00,24.8,23.6,30.04,East,87,3.0,6.0,95,0.00,,,0.00,Wunderground v.1.15,2013-03-05 10:17:00,
2013-03-05 04:22:00,24.7,23.5,30.04,East,81,5.0,5.0,95,0.00,,,0.00,Wunderground v.1.15,2013-03-05 10:22:00,
2013-03-05 04:27:00,24.7,23.5,30.04,East,80,2.0,6.0,95,0.00,,,0.00,Wunderground v.1.15,2013-03-05 10:27:00,
2013-03-05 04:32:00,24.7,23.5,30.04,East,94,0.0,8.0,95,0.00,,,0.00,Wunderground v.1.15,2013-03-05 10:32:00,
2013-03-05 04:37:00,24.6,23.4,30.04,ESE,118,6.0,8.0,95,0.00,,,0.00,Wunderground v.1.15,2013-03-05 10:37:00,
2013-03-05 04:42:00,24.6,23.4,30.04,East,92,6.0,6.0,95,0.00,,,0.00,Wunderground v.1.15,2013-03-05 10:42:00,
2013-03-05 04:47:00,24.6,23.4,30.05,East,92,1.0,6.0,95,0.00,,,0.00,Wunderground v.1.15,2013-03-05 10:47:00,
2013-03-05 04:52:00,24.6,23.4,30.05,East,94,4.0,7.0,95,0.00,,,0.00,Wunderground v.1.15,2013-03-05 10:52:00,
2013-03-05 04:57:00,24.5,23.3,30.05,ENE,71,2.0,7.0,95,0.00,,,0.00,Wunderground v.1.15,2013-03-05 10:57:00,
2013-03-05 05:03:00,24.5,23.3,30.05,East,93,4.0,4.0,95,0.00,,,0.00,Wunderground v.1.15,2013-03-05 11:03:00,
2013-03-05 05:08:00,24.5,23.3,30.05,ENE,76,1.0,4.0,95,0.00,,,0.00,Wunderground v.1.15,2013-03-05 11:08:00,
2013-03-05 05:13:00,24.5,23.3,30.05,East,86,4.0,4.0,95,0.00,,,0.00,Wunderground v.1.15,2013-03-05 11:13:00,
2013-03-05 05:18:00,24.5,23.3,30.06,East,95,0.0,6.0,95,0.00,,,0.00,Wunderground v.1.15,2013-03-05 11:18:00,
2013-03-05 05:23:00,24.5,23.3,30.06,East,95,0.0,4.0,95,0.00,,,0.00,Wunderground v.1.15,2013-03-05 11:23:00,
2013-03-05 05:28:00,24.5,23.3,30.06,East,99,6.0,6.0,95,0.00,,,0.00,Wunderground v.1.15,2013-03-05 11:28:00,
2013-03-05 05:33:00,24.4,23.2,30.05,East,94,0.0,5.0,95,0.00,,,0.00,Wunderground v.1.15,2013-03-05 11:33:00,
2013-03-05 05:38:00,24.4,23.2,30.06,East,90,5.0,5.0,95,0.00,,,0.00,Wunderground v.1.15,2013-03-05 11:38:00,
2013-03-05 05:44:00,24.4,23.2,30.06,ENE,69,3.0,4.0,95,0.00,,,0.00,Wunderground v.1.15,2013-03-05 11:44:00,
2013-03-05 05:49:00,24.4,23.2,30.06,ENE,76,2.0,4.0,95,0.00,,,0.00,Wunderground v.1.15,2013-03-05 11:49:00,
2013-03-05 05:54:00,24.4,23.2,30.06,ENE,69,2.0,4.0,95,0.00,,,0.00,Wunderground v.1.15,2013-03-05 11:54:00,
2013-03-05 05:59:00,24.3,23.1,30.06,ENE,65,0.0,4.0,95,0.00,,,0.00,Wunderground v.1.15,2013-03-05 11:59:00,
2013-03-05 06:04:00,24.3,23.1,30.06,East,82,3.0,5.0,95,0.00,,,0.00,Wunderground v.1.15,2013-03-05 12:04:00,
2013-03-05 06:09:00,24.3,23.1,30.06,ENE,74,2.0,5.0,95,0.00,,,0.00,Wunderground v.1.15,2013-03-05 12:09:00,
2013-03-05 06:14:00,24.3,23.1,30.06,East,97,2.0,5.0,95,0.00,,,0.00,Wunderground v.1.15,2013-03-05 12:14:00,
2013-03-05 06:19:00,24.3,23.1,30.06,ENE,57,3.0,6.0,95,0.00,,,0.00,Wunderground v.1.15,2013-03-05 12:19:00,
2013-03-05 06:25:00,24.3,23.1,30.06,ENE,73,2.0,6.0,95,0.00,,,0.00,Wunderground v.1.15,2013-03-05 12:25:00,
2013-03-05 06:30:00,24.3,23.1,30.06,NE,43,0.0,3.0,95,0.00,,,0.00,Wunderground v.1.15,2013-03-05 12:30:00,
2013-03-05 06:35:00,24.3,23.1,30.07,ENE,72,3.0,5.0,95,0.00,,,0.00,Wunderground v.1.15,2013-03-05 12:35:00,
2013-03-05 06:41:00,24.2,23.0,30.07,East,79,0.0,1.0,95,0.00,,,0.00,Wunderground v.1.15,2013-03-05 12:41:00,
2013-03-05 06:46:00,24.2,23.0,30.07,East,80,1.0,7.0,95,0.00,,,0.00,Wunderground v.1.15,2013-03-05 12:46:00,
2013-03-05 06:51:00,24.2,23.0,30.07,ENE,69,3.0,5.0,95,0.00,,,0.00,Wunderground v.1.15,2013-03-05 12:51:00,
2013-03-05 06:56:00,24.2,23.0,30.07,ENE,69,5.0,5.0,95,0.00,,,0.00,Wunderground v.1.15,2013-03-05 12:56:00,
2013-03-05 07:01:00,24.2,23.0,30.07,East,80,3.0,4.0,95,0.00,,,0.00,Wunderground v.1.15,2013-03-05 13:01:00,
2013-03-05 07:07:00,24.2,23.0,30.07,ENE,71,2.0,6.0,95,0.00,,,0.00,Wunderground v.1.15,2013-03-05 13:07:00,
2013-03-05 07:11:00,24.2,23.0,30.07,ENE,63,2.0,4.0,95,0.00,,,0.00,Wunderground v.1.15,2013-03-05 13:11:00,
2013-03-05 07:17:00,24.2,23.0,30.07,ENE,65,2.0,6.0,95,0.00,,,0.00,Wunderground v.1.15,2013-03-05 13:17:00,
2013-03-05 07:22:00,24.2,23.0,30.07,ENE,62,4.0,6.0,95,0.00,,,0.00,Wunderground v.1.15,2013-03-05 13:22:00,
2013-03-05 07:27:00,24.3,23.1,30.07,ENE,68,5.0,7.0,95,0.00,,,0.00,Wunderground v.1.15,2013-03-05 13:27:00,
2013-03-05 07:32:00,24.3,23.1,30.07,NE,55,2.0,5.0,95,0.00,,,0.00,Wunderground v.1.15,2013-03-05 13:32:00,
2013-03-05 07:37:00,24.4,23.2,30.08,ENE,75,4.0,5.0,95,0.00,,,0.00,Wunderground v.1.15,2013-03-05 13:37:00,
2013-03-05 07:42:00,24.4,23.2,30.08,NNE,15,0.0,7.0,95,0.00,,,0.00,Wunderground v.1.15,2013-03-05 13:42:00,
2013-03-05 07:47:00,24.5,23.0,30.08,ENE,65,0.0,7.0,94,0.00,,,0.00,Wunderground v.1.15,2013-03-05 13:47:00,
2013-03-05 07:52:00,24.5,23.0,30.08,ENE,63,4.0,4.0,94,0.00,,,0.00,Wunderground v.1.15,2013-03-05 13:52:00,
2013-03-05 07:58:00,24.7,23.2,30.08,ENE,59,0.0,7.0,94,0.00,,,0.00,Wunderground v.1.15,2013-03-05 13:58:00,
2013-03-05 08:03:00,24.7,23.2,30.08,NE,37,3.0,6.0,94,0.00,,,0.00,Wunderground v.1.15,2013-03-05 14:03:00,
2013-03-05 08:08:00,24.8,23.3,30.08,ENE,57,3.0,6.0,94,0.00,,,0.00,Wunderground v.1.15,2013-03-05 14:08:00,
2013-03-05 08:13:00,24.9,23.4,30.09,ENE,60,3.0,5.0,94,0.00,,,0.00,Wunderground v.1.15,2013-03-05 14:13:00,
2013-03-05 08:18:00,25.0,23.5,30.08,ENE,59,1.0,6.0,94,0.00,,,0.00,Wunderground v.1.15,2013-03-05 14:18:00,
2013-03-05 08:23:00,25.1,23.6,30.09,ENE,65,2.0,5.0,94,0.00,,,0.00,Wunderground v.1.15,2013-03-05 14:23:00,
2013-03-05 08:28:00,25.3,23.8,30.09,ENE,66,4.0,6.0,94,0.00,,,0.00,Wunderground v.1.15,2013-03-05 14:28:00,
2013-03-05 08:33:00,25.5,24.0,30.09,NE,53,2.0,6.0,94,0.00,,,0.00,Wunderground v.1.15,2013-03-05 14:33:00,
2013-03-05 08:38:00,25.5,24.0,30.09,NE,47,0.0,6.0,94,0.00,,,0.00,Wunderground v.1.15,2013-03-05 14:38:00,
2013-03-05 08:43:00,25.7,24.2,30.09,NE,42,3.0,6.0,94,0.00,,,0.00,Wunderground v.1.15,2013-03-05 14:43:00,
2013-03-05 08:49:00,25.8,24.1,30.10,ENE,70,3.0,10.0,93,0.00,,,0.00,Wunderground v.1.15,2013-03-05 14:49:00,
2013-03-05 08:54:00,25.8,24.1,30.10,NE,42,3.0,7.0,93,0.00,,,0.00,Wunderground v.1.15,2013-03-05 14:54:00,
2013-03-05 08:59:00,25.9,24.2,30.10,ENE,67,0.0,7.0,93,0.00,,,0.00,Wunderground v.1.15,2013-03-05 14:59:00,
2013-03-05 09:04:00,26.0,24.3,30.10,NE,49,3.0,8.0,93,0.00,,,0.00,Wunderground v.1.15,2013-03-05 15:04:00,
2013-03-05 09:09:00,26.0,24.3,30.10,NE,36,4.0,8.0,93,0.00,,,0.00,Wunderground v.1.15,2013-03-05 15:09:00,
2013-03-05 09:14:00,26.1,24.4,30.10,NE,43,3.0,8.0,93,0.00,,,0.00,Wunderground v.1.15,2013-03-05 15:14:00,
2013-03-05 09:19:00,26.2,24.5,30.10,NNE,32,4.0,8.0,93,0.00,,,0.00,Wunderground v.1.15,2013-03-05 15:19:00,
2013-03-05 09:24:00,26.3,24.6,30.10,East,82,3.0,5.0,93,0.00,,,0.00,Wunderground v.1.15,2013-03-05 15:24:00,
2013-03-05 09:29:00,26.3,24.3,30.11,NNE,29,2.0,7.0,92,0.00,,,0.00,Wunderground v.1.15,2013-03-05 15:29:00,
2013-03-05 09:34:00,26.5,24.8,30.11,NNW,328,0.0,6.0,93,0.00,,,0.00,Wunderground v.1.15,2013-03-05 15:34:00,
2013-03-05 09:40:00,26.6,24.6,30.11,ENE,66,3.0,6.0,92,0.00,,,0.00,Wunderground v.1.15,2013-03-05 15:40:00,
2013-03-05 09:45:00,26.6,24.6,30.12,NE,41,3.0,6.0,92,0.00,,,0.00,Wunderground v.1.15,2013-03-05 15:45:00,
2013-03-05 09:50:00,26.8,24.8,30.12,ENE,59,4.0,4.0,92,0.00,,,0.00,Wunderground v.1.15,2013-03-05 15:50:00,
2013-03-05 09:55:00,26.9,24.6,30.12,NNE,24,3.0,5.0,91,0.00,,,0.00,Wunderground v.1.15,2013-03-05 15:55:00,
2013-03-05 10:00:00,26.9,24.6,30.13,NE,53,7.0,7.0,91,0.00,,,0.00,Wunderground v.1.15,2013-03-05 16:00:00,
2013-03-05 10:05:00,27.0,24.7,30.13,NE,47,2.0,7.0,91,0.00,,,0.00,Wunderground v.1.15,2013-03-05 16:05:00,
2013-03-05 10:10:00,27.1,24.8,30.12,NNE,16,3.0,3.0,91,0.00,,,0.00,Wunderground v.1.15,2013-03-05 16:10:00,
2013-03-05 10:15:00,27.1,24.6,30.13,ENE,68,6.0,7.0,90,0.00,,,0.00,Wunderground v.1.15,2013-03-05 16:15:00,
2013-03-05 10:21:00,27.1,24.6,30.13,NNE,22,6.0,6.0,90,0.00,,,0.00,Wunderground v.1.15,2013-03-05 16:21:00,
2013-03-05 10:26:00,27.3,24.8,30.13,NE,46,3.0,6.0,90,0.00,,,0.00,Wunderground v.1.15,2013-03-05 16:26:00,
2013-03-05 10:31:00,27.2,24.7,30.13,NE,52,4.0,4.0,90,0.00,,,0.00,Wunderground v.1.15,2013-03-05 16:31:00,
2013-03-05 10:36:00,27.3,24.8,30.13,ENE,69,3.0,7.0,90,0.00,,,0.00,Wunderground v.1.15,2013-03-05 16:36:00,
2013-03-05 10:41:00,27.5,25.0,30.14,East,85,3.0,5.0,90,0.00,,,0.00,Wunderground v.1.15,2013-03-05 16:41:00,
2013-03-05 10:46:00,27.8,25.2,30.13,ENE,58,4.0,5.0,90,0.00,,,0.00,Wunderground v.1.15,2013-03-05 16:46:00,
2013-03-05 10:51:00,27.8,25.2,30.14,ENE,61,4.0,6.0,90,0.00,,,0.00,Wunderground v.1.15,2013-03-05 16:51:00,
2013-03-05 10:56:00,27.8,25.2,30.14,ENE,59,2.0,7.0,90,0.00,,,0.00,Wunderground v.1.15,2013-03-05 16:56:00,
2013-03-05 11:02:00,28.0,25.4,30.14,NE,44,3.0,5.0,90,0.00,,,0.00,Wunderground v.1.15,2013-03-05 17:02:00,
2013-03-05 11:07:00,28.2,25.9,30.14,ENE,60,3.0,5.0,91,0.00,,,0.00,Wunderground v.1.15,2013-03-05 17:07:00,
2013-03-05 11:12:00,28.3,25.7,30.14,NE,53,4.0,7.0,90,0.00,,,0.00,Wunderground v.1.15,2013-03-05 17:12:00,
2013-03-05 11:17:00,28.4,25.8,30.14,ENE,68,1.0,7.0,90,0.00,,,0.00,Wunderground v.1.15,2013-03-05 17:17:00,
2013-03-05 11:22:00,28.7,26.1,30.14,ENE,65,0.0,4.0,90,0.00,,,0.00,Wunderground v.1.15,2013-03-05 17:22:00,
2013-03-05 11:27:00,29.1,26.3,30.14,NE,49,0.0,6.0,89,0.00,,,0.00,Wunderground v.1.15,2013-03-05 17:27:00,
2013-03-05 11:32:00,29.4,26.6,30.14,NE,42,5.0,6.0,89,0.00,,,0.00,Wunderground v.1.15,2013-03-05 17:32:00,
2013-03-05 11:37:00,29.6,26.5,30.14,NE,44,0.0,6.0,88,0.00,,,0.00,Wunderground v.1.15,2013-03-05 17:37:00,
2013-03-05 11:42:00,29.9,26.8,30.15,NNE,32,3.0,3.0,88,0.00,,,0.00,Wunderground v.1.15,2013-03-05 17:42:00,
2013-03-05 11:47:00,30.3,26.9,30.15,North,355,3.0,6.0,87,0.00,,,0.00,Wunderground v.1.15,2013-03-05 17:47:00,
2013-03-05 11:52:00,30.1,26.4,30.15,NE,52,7.0,8.0,86,0.00,,,0.00,Wunderground v.1.15,2013-03-05 17:52:00,
2013-03-05 11:57:00,30.1,26.7,30.15,NE,53,6.0,8.0,87,0.00,,,0.00,Wunderground v.1.15,2013-03-05 17:57:00,
2013-03-05 12:03:00,30.3,26.9,30.15,NNE,12,3.0,10.0,87,0.00,,,0.00,Wunderground v.1.15,2013-03-05 18:03:00,
2013-03-05 12:08:00,30.3,26.9,30.15,NE,51,3.0,10.0,87,0.00,,,0.00,Wunderground v.1.15,2013-03-05 18:08:00,
2013-03-05 12:13:00,30.5,27.1,30.15,NE,37,3.0,10.0,87,0.00,,,0.00,Wunderground v.1.15,2013-03-05 18:13:00,
2013-03-05 12:18:00,30.5,27.1,30.15,NNE,20,1.0,10.0,87,0.00,,,0.00,Wunderground v.1.15,2013-03-05 18:18:00,
2013-03-05 12:23:00,30.6,26.9,30.15,ENE,57,3.0,8.0,86,0.00,,,0.00,Wunderground v.1.15,2013-03-05 18:23:00,
2013-03-05 12:28:00,30.7,27.3,30.15,NE,38,6.0,8.0,87,0.00,,,0.00,Wunderground v.1.15,2013-03-05 18:28:00,
2013-03-05 12:33:00,30.8,27.4,30.15,NNE,30,3.0,7.0,87,0.00,,,0.00,Wunderground v.1.15,2013-03-05 18:33:00,
2013-03-05 12:38:00,31.1,27.7,30.15,North,350,3.0,7.0,87,0.00,,,0.00,Wunderground v.1.15,2013-03-05 18:38:00,
2013-03-05 12:44:00,31.2,27.8,30.15,NNW,346,4.0,7.0,87,0.00,,,0.00,Wunderground v.1.15,2013-03-05 18:44:00,
2013-03-05 12:49:00,31.1,27.4,30.15,NNE,28,2.0,10.0,86,0.00,,,0.00,Wunderground v.1.15,2013-03-05 18:49:00,
2013-03-05 12:54:00,31.2,27.5,30.15,North,360,2.0,8.0,86,0.00,,,0.00,Wunderground v.1.15,2013-03-05 18:54:00,
2013-03-05 12:59:00,31.4,27.7,30.15,NNW,343,5.0,9.0,86,0.00,,,0.00,Wunderground v.1.15,2013-03-05 18:59:00,
2013-03-05 13:04:00,31.6,28.2,30.15,NE,53,4.0,7.0,87,0.00,,,0.00,Wunderground v.1.15,2013-03-05 19:04:00,
2013-03-05 13:09:00,32.0,28.3,30.15,NNE,26,0.0,7.0,86,0.00,,,0.00,Wunderground v.1.15,2013-03-05 19:09:00,
2013-03-05 13:14:00,32.1,28.4,30.15,NNE,20,6.0,9.0,86,0.00,,,0.00,Wunderground v.1.15,2013-03-05 19:14:00,
2013-03-05 13:19:00,32.4,28.4,30.15,North,5,4.0,9.0,85,0.00,,,0.00,Wunderground v.1.15,2013-03-05 19:19:00,
2013-03-05 13:24:00,32.6,28.9,30.15,NE,55,4.0,7.0,86,0.00,,,0.00,Wunderground v.1.15,2013-03-05 19:24:00,
2013-03-05 13:29:00,32.9,28.3,30.15,NE,53,14.0,14.0,83,0.00,,,0.00,Wunderground v.1.15,2013-03-05 19:29:00,
2013-03-05 13:35:00,32.9,28.0,30.15,NNE,33,10.0,11.0,82,0.00,,,0.00,Wunderground v.1.15,2013-03-05 19:35:00,
2013-03-05 13:40:00,32.8,27.9,30.15,NE,42,3.0,7.0,82,0.00,,,0.00,Wunderground v.1.15,2013-03-05 19:40:00,
2013-03-05 13:45:00,32.7,28.1,30.15,NNE,28,4.0,10.0,83,0.00,,,0.00,Wunderground v.1.15,2013-03-05 19:45:00,
2013-03-05 13:50:00,32.8,28.2,30.15,NE,36,6.0,6.0,83,0.00,,,0.00,Wunderground v.1.15,2013-03-05 19:50:00,
2013-03-05 13:55:00,32.8,27.9,30.16,ENE,58,6.0,10.0,82,0.00,,,0.00,Wunderground v.1.15,2013-03-05 19:55:00,
2013-03-05 14:00:00,32.4,27.5,30.16,NE,38,5.0,5.0,82,0.00,,,0.00,Wunderground v.1.15,2013-03-05 20:00:00,
2013-03-05 14:05:00,32.6,27.7,30.16,ENE,67,3.0,8.0,82,0.00,,,0.00,Wunderground v.1.15,2013-03-05 20:05:00,
2013-03-05 14:10:00,32.8,27.9,30.16,NE,35,5.0,5.0,82,0.00,,,0.01,Wunderground v.1.15,2013-03-05 20:10:00,
2013-03-05 14:16:00,32.9,28.0,30.16,NNE,24,6.0,11.0,82,0.00,,,0.01,Wunderground v.1.15,2013-03-05 20:16:00,
2013-03-05 14:21:00,33.1,27.6,30.16,North,9,4.0,12.0,80,0.10,,,0.02,Wunderground v.1.15,2013-03-05 20:21:00,
2013-03-05 14:26:00,33.2,28.0,30.17,NE,51,0.0,12.0,81,0.07,,,0.03,Wunderground v.1.15,2013-03-05 20:26:00,
2013-03-05 14:31:00,33.2,27.7,30.17,North,5,0.0,6.0,80,0.07,,,0.03,Wunderground v.1.15,2013-03-05 20:31:00,
2013-03-05 14:36:00,33.0,27.5,30.17,NE,41,5.0,7.0,80,0.08,,,0.04,Wunderground v.1.15,2013-03-05 20:36:00,
2013-03-05 14:41:00,33.0,27.5,30.17,NNE,26,2.0,9.0,80,0.06,,,0.05,Wunderground v.1.15,2013-03-05 20:41:00,
2013-03-05 14:47:00,32.7,27.2,30.17,NE,37,0.0,11.0,80,0.06,,,0.05,Wunderground v.1.15,2013-03-05 20:47:00,
2013-03-05 14:52:00,32.4,26.9,30.17,NE,40,0.0,4.0,80,0.06,,,0.06,Wunderground v.1.15,2013-03-05 20:52:00,
2013-03-05 14:57:00,32.3,27.1,30.18,NE,50,8.0,11.0,81,0.06,,,0.06,Wunderground v.1.15,2013-03-05 20:57:00,
2013-03-05 15:02:00,32.1,27.2,30.17,NNE,20,0.0,7.0,82,0.06,,,0.06,Wunderground v.1.15,2013-03-05 21:02:00,
2013-03-05 15:07:00,32.1,27.2,30.18,NNE,29,6.0,9.0,82,0.04,,,0.07,Wunderground v.1.15,2013-03-05 21:07:00,
2013-03-05 15:12:00,31.8,26.6,30.18,North,11,2.0,9.0,81,0.04,,,0.07,Wunderground v.1.15,2013-03-05 21:12:00,
2013-03-05 15:17:00,32.0,27.1,30.19,NNE,31,8.0,10.0,82,0.04,,,0.07,Wunderground v.1.15,2013-03-05 21:17:00,
2013-03-05 15:23:00,31.6,26.4,30.20,ENE,72,6.0,9.0,81,0.04,,,0.08,Wunderground v.1.15,2013-03-05 21:23:00,
2013-03-05 15:28:00,31.3,25.8,30.19,NNE,19,5.0,11.0,80,0.04,,,0.08,Wunderground v.1.15,2013-03-05 21:28:00,
2013-03-05 15:33:00,31.0,25.9,30.19,NE,37,2.0,9.0,81,0.04,,,0.08,Wunderground v.1.15,2013-03-05 21:33:00,
2013-03-05 15:38:00,31.1,26.2,30.20,NE,53,5.0,9.0,82,0.04,,,0.08,Wunderground v.1.15,2013-03-05 21:38:00,
2013-03-05 15:43:00,31.2,26.0,30.20,NNW,344,3.0,7.0,81,0.00,,,0.08,Wunderground v.1.15,2013-03-05 21:43:00,
2013-03-05 15:48:00,31.3,26.1,30.20,North,349,2.0,7.0,81,0.00,,,0.09,Wunderground v.1.15,2013-03-05 21:48:00,
2013-03-05 15:53:00,31.4,25.9,30.20,NE,38,6.0,12.0,80,0.00,,,0.09,Wunderground v.1.15,2013-03-05 21:53:00,
2013-03-05 15:58:00,31.5,26.0,30.21,North,360,4.0,12.0,80,0.00,,,0.09,Wunderground v.1.15,2013-03-05 21:58:00,
2013-03-05 16:03:00,31.5,26.0,30.22,North,11,0.0,8.0,80,0.00,,,0.09,Wunderground v.1.15,2013-03-05 22:03:00,
2013-03-05 16:08:00,31.3,25.8,30.22,NNE,17,3.0,8.0,80,0.00,,,0.10,Wunderground v.1.15,2013-03-05 22:08:00,
2013-03-05 16:13:00,31.0,26.1,30.22,NNW,342,2.0,9.0,82,0.00,,,0.10,Wunderground v.1.15,2013-03-05 22:13:00,
2013-03-05 16:18:00,30.6,26.1,30.23,NNE,12,3.0,9.0,83,0.00,,,0.10,Wunderground v.1.15,2013-03-05 22:18:00,
2013-03-05 16:24:00,30.3,25.8,30.22,NNE,32,0.0,3.0,83,0.00,,,0.10,Wunderground v.1.15,2013-03-05 22:24:00,
2013-03-05 16:29:00,30.3,25.8,30.23,NNE,31,5.0,7.0,83,0.00,,,0.10,Wunderground v.1.15,2013-03-05 22:29:00,
2013-03-05 16:34:00,30.4,25.9,30.23,North,5,0.0,6.0,83,0.00,,,0.10,Wunderground v.1.15,2013-03-05 22:34:00,
2013-03-05 16:39:00,31.0,26.4,30.23,North,355,0.0,6.0,83,0.00,,,0.10,Wunderground v.1.15,2013-03-05 22:39:00,
2013-03-05 16:44:00,31.5,26.3,30.24,North,350,3.0,6.0,81,0.00,,,0.11,Wunderground v.1.15,2013-03-05 22:44:00,
2013-03-05 16:49:00,31.8,26.0,30.24,North,350,3.0,6.0,79,0.00,,,0.11,Wunderground v.1.15,2013-03-05 22:49:00,
2013-03-05 16:54:00,31.3,25.5,30.24,North,355,3.0,7.0,79,0.00,,,0.11,Wunderground v.1.15,2013-03-05 22:54:00,
2013-03-05 17:00:00,30.9,25.5,30.24,North,350,3.0,7.0,80,0.00,,,0.11,Wunderground v.1.15,2013-03-05 23:00:00,
2013-03-05 17:05:00,30.6,25.5,30.24,NNE,14,4.0,7.0,81,0.00,,,0.12,Wunderground v.1.15,2013-03-05 23:05:00,
2013-03-05 17:10:00,30.3,25.5,30.24,NNW,341,1.0,3.0,82,0.00,,,0.12,Wunderground v.1.15,2013-03-05 23:10:00,
2013-03-05 17:15:00,30.0,25.5,30.24,NW,316,4.0,9.0,83,0.00,,,0.12,Wunderground v.1.15,2013-03-05 23:15:00,
2013-03-05 17:20:00,29.7,25.5,30.25,NNE,20,2.0,4.0,84,0.00,,,0.12,Wunderground v.1.15,2013-03-05 23:20:00,
2013-03-05 17:25:00,29.3,25.4,30.25,NNE,15,3.0,8.0,85,0.00,,,0.12,Wunderground v.1.15,2013-03-05 23:25:00,
2013-03-05 17:30:00,29.2,25.5,30.25,NNE,16,0.0,4.0,86,0.00,,,0.12,Wunderground v.1.15,2013-03-05 23:30:00,
2013-03-05 17:36:00,29.1,25.7,30.25,NNE,15,3.0,4.0,87,0.00,,,0.12,Wunderground v.1.15,2013-03-05 23:36:00,
2013-03-05 17:41:00,29.0,25.6,30.25,NNW,344,0.0,1.0,87,0.00,,,0.12,Wunderground v.1.15,2013-03-05 23:41:00,
2013-03-05 17:46:00,28.9,25.5,30.25,NNW,344,0.0,3.0,87,0.00,,,0.12,Wunderground v.1.15,2013-03-05 23:46:00,
2013-03-05 17:51:00,28.7,25.6,30.25,NNW,334,2.0,2.0,88,0.00,,,0.12,Wunderground v.1.15,2013-03-05 23:51:00,
2013-03-05 17:56:00,28.5,25.4,30.26,NW,320,2.0,5.0,88,0.00,,,0.12,Wunderground v.1.15,2013-03-05 23:56:00,
2013-03-05 18:01:00,28.3,25.5,30.26,NW,321,0.0,2.0,89,0.00,,,0.12,Wunderground v.1.15,2013-03-06 00:01:00,
2013-03-05 18:06:00,28.1,25.3,30.27,NW,321,0.0,4.0,89,0.00,,,0.12,Wunderground v.1.15,2013-03-06 00:06:00,
2013-03-05 18:11:00,27.9,25.1,30.27,NW,323,0.0,1.0,89,0.00,,,0.12,Wunderground v.1.15,2013-03-06 00:11:00,
2013-03-05 18:16:00,27.8,25.2,30.27,WNW,294,6.0,6.0,90,0.00,,,0.12,Wunderground v.1.15,2013-03-06 00:16:00,
2013-03-05 18:21:00,27.7,25.2,30.28,North,5,0.0,3.0,90,0.00,,,0.12,Wunderground v.1.15,2013-03-06 00:21:00,
2013-03-05 18:26:00,27.6,25.1,30.28,NW,322,1.0,6.0,90,0.00,,,0.12,Wunderground v.1.15,2013-03-06 00:26:00,
2013-03-05 18:32:00,27.4,24.9,30.27,NW,324,4.0,4.0,90,0.00,,,0.12,Wunderground v.1.15,2013-03-06 00:32:00,
2013-03-05 18:37:00,27.1,24.6,30.28,NNW,340,2.0,5.0,90,0.00,,,0.12,Wunderground v.1.15,2013-03-06 00:37:00,
2013-03-05 18:42:00,26.8,24.3,30.28,NW,315,0.0,3.0,90,0.00,,,0.12,Wunderground v.1.15,2013-03-06 00:42:00,
2013-03-05 18:47:00,26.5,24.0,30.28,NNW,336,0.0,5.0,90,0.00,,,0.12,Wunderground v.1.15,2013-03-06 00:47:00,
2013-03-05 18:53:00,26.3,24.0,30.28,NNW,328,4.0,13.0,91,0.00,,,0.12,Wunderground v.1.15,2013-03-06 00:53:00,
2013-03-05 18:58:00,26.2,23.9,30.29,NE,48,1.0,13.0,91,0.00,,,0.12,Wunderground v.1.15,2013-03-06 00:58:00,
2013-03-05 19:03:00,26.0,23.5,30.29,NE,44,4.0,11.0,90,0.00,,,0.12,Wunderground v.1.15,2013-03-06 01:03:00,
2013-03-05 19:08:00,25.8,23.3,30.29,NE,49,3.0,11.0,90,0.00,,,0.12,Wunderground v.1.15,2013-03-06 01:08:00,
2013-03-05 19:13:00,25.7,23.2,30.29,NE,35,1.0,7.0,90,0.00,,,0.12,Wunderground v.1.15,2013-03-06 01:13:00,
2013-03-05 19:19:00,25.5,22.7,30.29,NE,36,6.0,9.0,89,0.00,,,0.12,Wunderground v.1.15,2013-03-06 01:19:00,
2013-03-05 19:24:00,25.3,22.5,30.29,North,11,4.0,10.0,89,0.00,,,0.12,Wunderground v.1.15,2013-03-06 01:24:00,
2013-03-05 19:29:00,25.2,22.4,30.29,North,5,3.0,10.0,89,0.00,,,0.12,Wunderground v.1.15,2013-03-06 01:29:00,
2013-03-05 19:34:00,25.0,22.5,30.30,NNE,21,0.0,8.0,90,0.00,,,0.12,Wunderground v.1.15,2013-03-06 01:34:00,
2013-03-05 19:39:00,24.8,22.0,30.30,NNW,338,1.0,8.0,89,0.00,,,0.12,Wunderground v.1.15,2013-03-06 01:39:00,
2013-03-05 19:44:00,24.5,22.0,30.30,NNW,341,5.0,6.0,90,0.00,,,0.12,Wunderground v.1.15,2013-03-06 01:44:00,
2013-03-05 19:50:00,24.4,21.9,30.30,NNE,29,0.0,10.0,90,0.00,,,0.12,Wunderground v.1.15,2013-03-06 01:50:00,
2013-03-05 19:55:00,24.2,21.4,30.30,NNW,332,0.0,6.0,89,0.00,,,0.12,Wunderground v.1.15,2013-03-06 01:55:00,
2013-03-05 20:00:00,24.0,21.5,30.30,NE,34,0.0,2.0,90,0.00,,,0.12,Wunderground v.1.15,2013-03-06 02:00:00,
2013-03-05 20:05:00,23.9,21.4,30.30,NNE,15,2.0,6.0,90,0.00,,,0.12,Wunderground v.1.15,2013-03-06 02:05:00,
2013-03-05 20:10:00,23.7,20.9,30.30,NNE,24,0.0,1.0,89,0.00,,,0.12,Wunderground v.1.15,2013-03-06 02:10:00,
2013-03-05 20:15:00,23.5,20.7,30.31,NNE,27,4.0,4.0,89,0.00,,,0.12,Wunderground v.1.15,2013-03-06 02:15:00,
2013-03-05 20:20:00,23.3,20.5,30.31,NNE,26,0.0,2.0,89,0.00,,,0.12,Wunderground v.1.15,2013-03-06 02:20:00,
2013-03-05 20:25:00,23.0,20.2,30.32,NNE,26,0.0,2.0,89,0.00,,,0.12,Wunderground v.1.15,2013-03-06 02:25:00,
2013-03-05 20:30:00,22.8,20.0,30.32,North,10,0.0,2.0,89,0.00,,,0.12,Wunderground v.1.15,2013-03-06 02:30:00,
2013-03-05 20:35:00,22.5,19.7,30.32,North,10,3.0,4.0,89,0.00,,,0.12,Wunderground v.1.15,2013-03-06 02:35:00,
2013-03-05 20:41:00,22.2,19.5,30.32,North,5,0.0,3.0,89,0.00,,,0.12,Wunderground v.1.15,2013-03-06 02:41:00,
2013-03-05 20:46:00,21.9,19.2,30.33,North,5,0.0,3.0,89,0.00,,,0.12,Wunderground v.1.15,2013-03-06 02:46:00,
2013-03-05 20:51:00,21.6,18.9,30.33,North,5,0.0,0.0,89,0.00,,,0.12,Wunderground v.1.15,2013-03-06 02:51:00,
2013-03-05 20:56:00,21.4,18.9,30.34,North,5,1.0,1.0,90,0.00,,,0.12,Wunderground v.1.15,2013-03-06 02:56:00,
2013-03-05 21:01:00,21.4,18.9,30.33,North,5,0.0,0.0,90,0.00,,,0.12,Wunderground v.1.15,2013-03-06 03:01:00,
2013-03-05 21:07:00,21.4,19.2,30.34,North,5,0.0,0.0,91,0.00,,,0.12,Wunderground v.1.15,2013-03-06 03:07:00,
2013-03-05 21:12:00,21.5,19.3,30.34,North,5,0.0,0.0,91,0.00,,,0.12,Wunderground v.1.15,2013-03-06 03:12:00,
2013-03-05 21:17:00,21.6,19.6,30.34,North,5,0.0,2.0,92,0.00,,,0.12,Wunderground v.1.15,2013-03-06 03:17:00,
2013-03-05 21:22:00,21.9,20.2,30.34,North,5,0.0,2.0,93,0.00,,,0.12,Wunderground v.1.15,2013-03-06 03:22:00,
2013-03-05 21:27:00,22.2,20.5,30.34,North,5,0.0,2.0,93,0.00,,,0.12,Wunderground v.1.15,2013-03-06 03:27:00,
2013-03-05 21:32:00,22.4,20.7,30.34,North,5,1.0,1.0,93,0.00,,,0.12,Wunderground v.1.15,2013-03-06 03:32:00,
2013-03-05 21:37:00,22.7,21.0,30.35,North,5,0.0,3.0,93,0.00,,,0.12,Wunderground v.1.15,2013-03-06 03:37:00,
2013-03-05 21:42:00,22.9,21.2,30.35,NNW,340,0.0,1.0,93,0.00,,,0.12,Wunderground v.1.15,2013-03-06 03:42:00,
2013-03-05 21:48:00,23.1,21.4,30.35,NNW,338,0.0,3.0,93,0.00,,,0.12,Wunderground v.1.15,2013-03-06 03:48:00,
2013-03-05 21:53:00,23.3,21.6,30.35,NNW,338,0.0,0.0,93,0.00,,,0.12,Wunderground v.1.15,2013-03-06 03:53:00,
2013-03-05 21:58:00,23.4,21.4,30.35,NNW,338,0.0,3.0,92,0.00,,,0.12,Wunderground v.1.15,2013-03-06 03:58:00,
2013-03-05 22:03:00,23.4,21.4,30.35,NNW,338,0.0,0.0,92,0.00,,,0.12,Wunderground v.1.15,2013-03-06 04:03:00,
2013-03-05 22:08:00,23.4,21.4,30.35,NNW,338,0.0,2.0,92,0.00,,,0.12,Wunderground v.1.15,2013-03-06 04:08:00,
2013-03-05 22:13:00,23.5,21.5,30.35,NNW,338,0.0,0.0,92,0.00,,,0.12,Wunderground v.1.15,2013-03-06 04:13:00,
2013-03-05 22:19:00,23.5,21.5,30.35,NNW,338,0.0,0.0,92,0.00,,,0.12,Wunderground v.1.15,2013-03-06 04:19:00,
2013-03-05 22:24:00,23.5,21.5,30.34,North,5,1.0,3.0,92,0.00,,,0.12,Wunderground v.1.15,2013-03-06 04:24:00,
2013-03-05 22:29:00,23.6,21.4,30.34,North,5,0.0,3.0,91,0.00,,,0.12,Wunderground v.1.15,2013-03-06 04:29:00,
2013-03-05 22:34:00,23.6,21.4,30.34,North,5,1.0,3.0,91,0.00,,,0.12,Wunderground v.1.15,2013-03-06 04:34:00,
2013-03-05 22:40:00,23.6,21.4,30.35,North,5,2.0,3.0,91,0.00,,,0.12,Wunderground v.1.15,2013-03-06 04:40:00,
2013-03-05 22:45:00,23.6,21.4,30.34,North,5,0.0,4.0,91,0.00,,,0.12,Wunderground v.1.15,2013-03-06 04:45:00,
2013-03-05 22:50:00,23.6,21.4,30.35,North,5,0.0,0.0,91,0.00,,,0.12,Wunderground v.1.15,2013-03-06 04:50:00,
2013-03-05 22:55:00,23.6,21.4,30.35,North,5,0.0,3.0,91,0.00,,,0.12,Wunderground v.1.15,2013-03-06 04:55:00,
2013-03-05 23:00:00,23.6,21.4,30.36,North,5,0.0,3.0,91,0.00,,,0.12,Wunderground v.1.15,2013-03-06 05:00:00,
2013-03-05 23:02:00,23.6,21.4,30.36,North,5,0.0,0.0,91,0.00,,,0.12,Wunderground v.1.15,2013-03-06 05:02:00,
2013-03-05 23:07:00,23.7,21.5,30.36,North,5,0.0,2.0,91,0.00,,,0.12,Wunderground v.1.15,2013-03-06 05:07:00,
2013-03-05 23:12:00,23.7,21.5,30.36,North,5,0.0,0.0,91,0.00,,,0.12,Wunderground v.1.15,2013-03-06 05:12:00,
2013-03-05 23:17:00,23.6,21.4,30.36,North,5,0.0,3.0,91,0.00,,,0.12,Wunderground v.1.15,2013-03-06 05:17:00,
2013-03-05 23:22:00,23.6,21.4,30.36,North,5,0.0,0.0,91,0.00,,,0.12,Wunderground v.1.15,2013-03-06 05:22:00,
2013-03-05 23:27:00,23.6,21.1,30.37,North,5,0.0,0.0,90,0.00,,,0.12,Wunderground v.1.15,2013-03-06 05:27:00,
2013-03-05 23:32:00,23.6,21.1,30.36,North,5,0.0,0.0,90,0.00,,,0.12,Wunderground v.1.15,2013-03-06 05:32:00,
2013-03-05 23:37:00,23.6,21.1,30.36,North,5,0.0,0.0,90,0.00,,,0.12,Wunderground v.1.15,2013-03-06 05:37:00,
2013-03-05 23:42:00,23.6,21.4,30.36,North,5,0.0,0.0,91,0.00,,,0.12,Wunderground v.1.15,2013-03-06 05:42:00,
2013-03-05 23:48:00,23.6,21.4,30.36,North,5,0.0,0.0,91,0.00,,,0.12,Wunderground v.1.15,2013-03-06 05:48:00,
2013-03-05 23:53:00,23.5,21.0,30.36,North,5,0.0,0.0,90,0.00,,,0.12,Wunderground v.1.15,2013-03-06 05:53:00,
2013-03-05 23:58:00,23.4,20.9,30.37,North,5,2.0,3.0,90,0.00,,,0.12,Wunderground v.1.15,2013-03-06 05:58:00,